Regional Weather Roundup
Issued by NWS Sioux Falls, SD

Home | Current Version | Previous Version | Text Only | Print | Product List | Glossary Off
Versions: 1 2 3 4 5 6 7 8 9 10 11 12 13 14 15 16 17 18 19 20 21 22 23 24 25 26 27 28 29 30 31 32 33 34 35 36 37 38 39 40 41 42 43 44 45 46 47 48 49 50

488
ASUS43 KFSD 190102
RWRFSD

WEATHER ROUNDUP FOR SE SOUTH DAKOTA/SW MINNESOTA/NW IOWA
NATIONAL WEATHER SERVICE SIOUX FALLS SD
700 PM CST WED JAN 18 2017

NOTE: "FAIR" INDICATES FEW OR NO CLOUDS BELOW 12,000 FEET WITH NO
SIGNIFICANT WEATHER AND OR OBSTRUCTIONS TO VISIBILITY.


SDZ038>040-050-052>070-190200-
SOUTHEAST SOUTH DAKOTA

CITY           SKY/WX    TMP DP  RH WIND       PRES   REMARKS
BROOKINGS      CLOUDY    34  32  92 S13       29.75F WCI  25
CHAMBERLAIN    CLOUDY    40  31  69 E6        29.69F
HURON          CLEAR     33  31  92 SE9       29.71F WCI  25
MADISON          N/A     34  34 100 S8          N/A  WCI  27
MITCHELL       CLOUDY    39  35  86 SE10      29.74S
SIOUX FALLS    CLEAR     41  38  89 S12       29.79F
WINNER         FAIR      46  24  42 S12       29.68F
YANKTON        CLEAR     39  36  87 S9        29.79S
$$

MNZ071-072-080-081-089-090-097-098-190200-
SOUTHWEST MINNESOTA

CITY           SKY/WX    TMP DP  RH WIND       PRES   REMARKS
FAIRMONT       CLEAR     36  34  92 S13       29.86F
JACKSON        CLEAR     36  34  93 S13       29.84S
LUVERNE        CLEAR     36  34  93 S7        29.81S
MARSHALL       CLOUDY    38  35  89 SW16      29.76F
MONTEVIDEO     CLOUDY    34  30  86 S5        29.80R WCI  30
PIPESTONE      CLOUDY    37  36  93 S10       29.78S
REDWOOD FALLS  CLOUDY    34  30  85 S12       29.80F WCI  25
TRACY          CLEAR     40  37  91 S16G23    29.78S
WINDOM         CLEAR     39  36  87 S10       29.82S
WORTHINGTON    CLEAR     38  35  89 S16       29.81F
$$

IAZ001>003-012>014-020>022-031-032-NEZ013-014-SDZ071-190200-
NORTHWEST IOWA

CITY           SKY/WX    TMP DP  RH WIND       PRES   REMARKS
CHEROKEE       CLEAR     38  37  94 S8        29.86F
DENISON        CLEAR     41  37  87 S12       29.88S
ESTHERVILLE    CLEAR     35  35 100 S12       29.85F WCI  27
LE MARS        CLEAR     39  36  87 S8        29.85F
ORANGE CITY    CLEAR     37  37 100 S10       29.84S
SHELDON        CLEAR     39  39 100 S15       29.82S
SIOUX CITY     CLEAR     41  37  86 S10       29.86S
SPENCER        CLEAR     37  35  92 S12       29.85F
STORM LAKE     CLEAR     36  34  93 S12       29.87F
$$

ABBREVIATIONS USED IN REMARKS
   TC - TEMPERATURE IN CELSIUS
  WCI - WIND CHILL INDEX
   HX - HEAT INDEX
  VSB - VISIBILITY





USA.gov is the U.S. government's official web portal to all federal, state and local government web resources and services.